QPF
0.00 0.00 0.00 0.00 0.00 0.00 0.00 0.00 0.00 0.00 0.00 0.00 0.00 0.00 0.00 0.00 0.00 0.00 0.00 0.00 0.00 0.00 0.00 0.00 0.00 0.00 0.00 0.00 0.00 0.00 0.00 0.00 0.00 0.00 0.00 0.00 0.00 0.00 0.00 0.00 0.00 0.00 0.00 0.00 0.00 0.00 0.00
0.00 0.00 0.00 0.00 0.00 0.00 0.00 0.00 0.00 0.00 0.00 0.00 0.00 0.00 0.00 0.00 0.00 0.00 0.00 0.00 0.00 0.00 0.00 0.00 0.00 0.00 0.00 0.00 0.00 0.00 0.00 0.00 0.00 0.00 0.00 0.00 0.00 0.00 0.00 0.00 0.00 0.00 0.00 0.00 0.00 0.00 0.00
0.00 0.00 0.00 0.00 0.00 0.00 0.00 0.00 0.00 0.00 0.00 0.00 0.00 0.00 0.00 0.00 0.00 0.00 0.00 0.00 0.00 0.00 0.00 0.00 0.00 0.00 0.00 0.00 0.00 0.00 0.00 0.00 0.00 0.00 0.00 0.00 0.00 0.00 0.00 0.00 0.00 0.00 0.00 0.00 0.00 0.00 0.00
0.00 0.00 0.00 0.00 0.00 0.00 0.00 0.00 0.00 0.00 0.00 0.00 0.00 0.00 0.00 0.00 0.00 0.00 0.00 0.00 0.00 0.00 0.00 0.00 0.00 0.00 0.00 0.00 0.00 0.00 0.00 0.00 0.00 0.00 0.00 0.00 0.00 0.00 0.00 0.00 0.00 0.00 0.00 0.00 0.00 0.00 0.00
0.00 0.00 0.00 0.00 0.00 0.00 0.00 0.00 0.00 0.00 0.00 0.00 0.00 0.00 0.00 0.00 0.00 0.00 0.00 0.00 0.00 0.00 0.00 0.00 0.00 0.00 0.00 0.00 0.00 0.00 0.00 0.00 0.00 0.00 0.00 0.00 0.00 0.00 0.00 0.00 0.00 0.00 0.00 0.00 0.00 0.00 0.00
0.00 0.00 0.00 0.00 0.00 0.00 0.00 0.00 0.00 0.00 0.00 0.00 0.00 0.00 0.00 0.00 0.00 0.00 0.00 0.00 0.00 0.00 0.00 0.00 0.00 0.00 0.00 0.00 0.00 0.00 0.00 0.00 0.00 0.00 0.00 0.00 0.00 0.00 0.00 0.00 0.00 0.00 0.00 0.00 0.00 0.00 0.00
0.00 0.00 0.00 0.00 0.00 0.00 0.00 0.00 0.00 0.00 0.00 0.00 0.00 0.00 0.00 0.00 0.00 0.00 0.00 0.00 0.00 0.00 0.00 0.00 0.00 0.00 0.00 0.00 0.00 0.00 0.00 0.00 0.00 0.00 0.00 0.00 0.00 0.00 0.00 0.00 0.00 0.00 0.00 0.00 0.00 0.00 0.00
0.00 0.00 0.00 0.00 0.00 0.00 0.00 0.00 0.00 0.00 0.00 0.00 0.00 0.00 0.00 0.00 0.00 0.00 0.00 0.00 0.00 0.00 0.00 0.00 0.00 0.00 0.00 0.00 0.00 0.00 0.00 0.00 0.00 0.00 0.00 0.00 0.00 0.00 0.00 0.00 0.00 0.00 0.00 0.00 0.00 0.00 0.00
0.00 0.00 0.00 0.00 0.00 0.00 0.00 0.00 0.00 0.00 0.00 0.00 0.00 0.00 0.00 0.00 0.00 0.00 0.00 0.00 0.00 0.00 0.00 0.00 0.00 0.00 0.00 0.00 0.00 0.00 0.00 0.00 0.00 0.00 0.00 0.00 0.00 0.00 0.00 0.00 0.00 0.00 0.00 0.00 0.00 0.00 0.00
0.00 0.00 0.00 0.00 0.00 0.00 0.00 0.00 0.00 0.00 0.00 0.00 0.00 0.00 0.00 0.00 0.00 0.00 0.00 0.00 0.00 0.00 0.00 0.00 0.00 0.00 0.00 0.00 0.00 0.00 0.00 0.00 0.00 0.00 0.00 0.00 0.00 0.00 0.00 0.00 0.00 0.00 0.00 0.00 0.00 0.00 0.00
0.00 0.00 0.00 0.00 0.00 0.00 0.00 0.00 0.00 0.00 0.00 0.00 0.00 0.00 0.00 0.00 0.00 0.00 0.00 0.00 0.00 0.00 0.00 0.00 0.00 0.00 0.00 0.00 0.00 0.00 0.00 0.00 0.00 0.00 0.00 0.00 0.00 0.00 0.00 0.00 0.00 0.00 0.00 0.00 0.00 0.00 0.00
0.00 0.00 0.00 0.00 0.00 0.00 0.00 0.00 0.00 0.00 0.00 0.00 0.00 0.00 0.00 0.00 0.00 0.00 0.00 0.00 0.00 0.00 0.00 0.00 0.00 0.00 0.00 0.00 0.00 0.00 0.00 0.00 0.00 0.00 0.00 0.00 0.01 0.00 0.00 0.00 0.00 0.00 0.00 0.00 0.00 0.00 0.00
0.00 0.00 0.00 0.00 0.00 0.00 0.00 0.00 0.00 0.00 0.00 0.00 0.00 0.00 0.00 0.00 0.00 0.00 0.00 0.00 0.00 0.00 0.00 0.00 0.00 0.00 0.00 0.00 0.00 0.00 0.00 0.00 0.00 0.00 0.01 0.01 0.01 0.01 0.00 0.01 0.01 0.01 0.00 0.00 0.00 0.00 0.00
0.00 0.00 0.00 0.00 0.00 0.00 0.00 0.00 0.00 0.00 0.00 0.00 0.00 0.00 0.00 0.00 0.00 0.00 0.00 0.00 0.00 0.00 0.00 0.00 0.00 0.00 0.00 0.00 0.00 0.00 0.00 0.00 0.00 0.00 0.02 0.02 0.03 0.01 0.01 0.01 0.01 0.00 0.00 0.00 0.00 0.00 0.00
0.00 0.00 0.00 0.00 0.00 0.00 0.00 0.00 0.00 0.00 0.00 0.00 0.00 0.00 0.00 0.00 0.00 0.00 0.00 0.00 0.00 0.00 0.00 0.00 0.00 0.00 0.00 0.00 0.00 0.00 0.00 0.00 0.00 0.00 0.02 0.04 0.01 0.01 0.01 0.01 0.01 0.00 0.00 0.00 0.00 0.00 0.00
0.00 0.00 0.00 0.00 0.00 0.00 0.00 0.00 0.00 0.00 0.00 0.00 0.00 0.00 0.00 0.00 0.00 0.00 0.00 0.00 0.00 0.00 0.00 0.00 0.00 0.00 0.00 0.00 0.00 0.00 0.00 0.00 0.00 0.01 0.01 0.04 0.01 0.00 0.01 0.01 0.00 0.00 0.00 0.00 0.00 0.00 0.00
0.00 0.00 0.00 0.00 0.00 0.00 0.00 0.00 0.00 0.00 0.00 0.00 0.00 0.00 0.00 0.00 0.00 0.00 0.00 0.00 0.00 0.00 0.00 0.00 0.00 0.00 0.00 0.00 0.01 0.00 0.00 0.00 0.00 0.01 0.04 0.09 0.02 0.00 0.00 0.01 0.01 0.00 0.00 0.00 0.00 0.00 0.00
0.00 0.00 0.00 0.00 0.00 0.00 0.00 0.00 0.00 0.00 0.00 0.00 0.00 0.00 0.00 0.00 0.00 0.00 0.00 0.00 0.00 0.00 0.00 0.00 0.00 0.00 0.01 0.01 0.01 0.00 0.00 0.00 0.02 0.03 0.05 0.07 0.05 0.01 0.01 0.01 0.00 0.00 0.00 0.00 0.00 0.00 0.00
0.00 0.00 0.00 0.00 0.00 0.00 0.00 0.00 0.00 0.00 0.00 0.00 0.00 0.00 0.00 0.00 0.00 0.00 0.00 0.00 0.00 0.00 0.00 0.00 0.00 0.00 0.00 0.00 0.00 0.00 0.00 0.01 0.00 0.01 0.05 0.05 0.04 0.01 0.00 0.00 0.00 0.00 0.00 0.00 0.00 0.00 0.00
0.00 0.00 0.00 0.00 0.00 0.00 0.00 0.00 0.00 0.00 0.00 0.00 0.00 0.00 0.00 0.00 0.00 0.01 0.00 0.00 0.00 0.00 0.00 0.00 0.00 0.00 0.00 0.00 0.01 0.01 0.01 0.00 0.00 0.00 0.02 0.02 0.01 0.00 0.00 0.00 0.00 0.00 0.00 0.00 0.00 0.00 0.00
0.00 0.00 0.00 0.00 0.00 0.00 0.00 0.00 0.00 0.00 0.00 0.00 0.00 0.00 0.00 0.00 0.00 0.00 0.00 0.00 0.00 0.00 0.00 0.00 0.01 0.00 0.01 0.01 0.01 0.02 0.00 0.00 0.00 0.00 0.01 0.01 0.00 0.00 0.00 0.00 0.00 0.00 0.00 0.00 0.00 0.00 0.00
0.00 0.00 0.00 0.00 0.00 0.00 0.00 0.00 0.00 0.00 0.00 0.00 0.00 0.00 0.00 0.00 0.00 0.00 0.00 0.00 0.00 0.00 0.00 0.00 0.00 0.00 0.00 0.01 0.01 0.01 0.00 0.00 0.00 0.00 0.00 0.00 0.00 0.00 0.00 0.00 0.00 0.00 0.00 0.00 0.00 0.00 0.00
0.00 0.00 0.00 0.00 0.00 0.00 0.00 0.00 0.00 0.00 0.00 0.00 0.00 0.00 0.00 0.00 0.00 0.00 0.00 0.00 0.00 0.00 0.00 0.00 0.00 0.00 0.00 0.00 0.00 0.00 0.00 0.00 0.00 0.00 0.01 0.00 0.00 0.00 0.00 0.00 0.00 0.00 0.00 0.00 0.00 0.00 0.00
0.00 0.00 0.00 0.00 0.00 0.00 0.00 0.00 0.00 0.00 0.00 0.00 0.00 0.00 0.01 0.00 0.00 0.00 0.00 0.00 0.00 0.00 0.00 0.00 0.00 0.00 0.00 0.00 0.00 0.00 0.00 0.00 0.00 0.00 0.00 0.00 0.00 0.00 0.00 0.00 0.00 0.00 0.00 0.00 0.00 0.00 0.00
0.00 0.00 0.00 0.00 0.00 0.00 0.00 0.00 0.00 0.00 0.00 0.00 0.00 0.00 0.02 0.01 0.00 0.00 0.00 0.00 0.00 0.00 0.00 0.00 0.00 0.00 0.00 0.00 0.00 0.00 0.00 0.01 0.00 0.00 0.00 0.00 0.00 0.00 0.00 0.00 0.00 0.00 0.00 0.00 0.00 0.00 0.00
0.00 0.00 0.00 0.00 0.00 0.00 0.00 0.00 0.00 0.00 0.00 0.00 0.00 0.00 0.01 0.02 0.00 0.00 0.00 0.00 0.00 0.00 0.00 0.00 0.00 0.00 0.00 0.01 0.01 0.00 0.00 0.00 0.00 0.00 0.00 0.00 0.00 0.00 0.00 0.00 0.00 0.00 0.00 0.00 0.00 0.00 0.00
0.00 0.00 0.00 0.00 0.00 0.00 0.00 0.00 0.00 0.00 0.00 0.01 0.00 0.00 0.02 0.02 0.00 0.00 0.00 0.00 0.00 0.01 0.01 0.00 0.00 0.00 0.00 0.00 0.00 0.00 0.00 0.00 0.00 0.00 0.00 0.00 0.00 0.00 0.00 0.00 0.00 0.00 0.00 0.00 0.00 0.00 0.00
0.00 0.00 0.00 0.00 0.00 0.00 0.00 0.00 0.00 0.00 0.00 0.02 0.00 0.00 0.01 0.02 0.00 0.00 0.00 0.00 0.00 0.01 0.01 0.00 0.00 0.00 0.00 0.00 0.00 0.00 0.00 0.00 0.00 0.00 0.00 0.00 0.00 0.00 0.00 0.00 0.00 0.00 0.00 0.00 0.00 0.00 0.00
0.00 0.00 0.00 0.00 0.00 0.00 0.00 0.00 0.00 0.00 0.00 0.03 0.00 0.00 0.02 0.03 0.00 0.00 0.00 0.00 0.00 0.00 0.00 0.00 0.00 0.00 0.00 0.00 0.00 0.00 0.02 0.00 0.00 0.00 0.00 0.00 0.00 0.00 0.00 0.00 0.00 0.00 0.00 0.00 0.00 0.00 0.00
MSLP
1027.83 1027.57 1027.49 1027.30 1027.16 1027.01 1026.87 1026.69 1026.40 1026.11 1025.64 1025.27 1024.75 1024.19 1023.68 1022.98 1022.32 1021.68 1021.05 1020.33 1019.59 1019.06 1018.56 1018.12 1017.92 1017.06 1015.91 1015.13 1013.01 1010.79 1010.70 1010.26 1010.05 1010.06 1010.24 1010.39 1010.62 1011.16 1012.17 1012.92 1013.41 1014.35 1014.97 1015.33 1015.75 1016.27 1017.15
1028.04 1027.88 1027.79 1027.67 1027.44 1027.33 1027.13 1026.84 1026.58 1026.13 1025.71 1025.32 1024.83 1024.28 1023.60 1022.92 1022.18 1021.47 1020.67 1019.99 1019.39 1018.79 1018.28 1017.97 1017.91 1017.25 1016.64 1015.15 1011.64 1011.07 1011.09 1010.54 1010.43 1010.42 1010.16 1010.20 1010.52 1010.95 1012.29 1013.28 1013.92 1014.79 1015.43 1016.09 1016.44 1016.93 1017.63
1028.26 1028.17 1028.10 1027.91 1027.80 1027.53 1027.36 1027.03 1026.70 1026.29 1025.87 1025.35 1024.76 1024.12 1023.30 1022.45 1021.58 1020.55 1019.64 1018.96 1018.76 1018.25 1017.84 1017.72 1017.84 1017.46 1016.74 1013.90 1011.48 1011.14 1011.32 1010.91 1010.40 1010.37 1010.38 1010.21 1010.27 1010.85 1012.33 1013.69 1014.47 1015.29 1016.26 1016.63 1016.76 1017.12 1018.13
1028.57 1028.33 1028.35 1028.13 1027.94 1027.73 1027.55 1027.26 1026.94 1026.53 1026.03 1025.63 1025.10 1024.48 1023.73 1022.90 1021.94 1020.87 1019.63 1018.08 1017.37 1017.30 1017.25 1017.42 1017.52 1017.36 1015.71 1012.18 1011.69 1011.71 1010.99 1010.65 1010.30 1010.10 1010.13 1010.07 1010.18 1011.18 1012.36 1013.80 1014.89 1015.96 1016.75 1017.43 1017.07 1017.12 1017.77
1028.86 1028.58 1028.57 1028.43 1028.08 1027.92 1027.78 1027.62 1027.26 1026.91 1026.43 1026.00 1025.42 1024.72 1023.96 1022.95 1021.88 1020.63 1019.09 1017.60 1016.74 1016.42 1016.43 1016.87 1017.25 1016.98 1014.70 1011.80 1011.46 1010.51 1010.68 1010.66 1010.45 1010.32 1010.17 1010.20 1010.57 1012.07 1013.24 1014.50 1015.83 1016.46 1016.93 1017.20 1017.19 1017.04 1017.60
1029.15 1028.93 1028.83 1028.56 1028.39 1028.13 1027.94 1027.78 1027.47 1027.10 1026.54 1026.03 1025.36 1024.62 1023.77 1022.67 1021.54 1020.09 1017.93 1016.79 1016.36 1016.05 1016.04 1016.17 1016.37 1016.75 1013.72 1012.33 1011.59 1011.12 1010.39 1010.74 1010.88 1010.92 1011.18 1011.26 1012.08 1013.02 1014.04 1014.66 1015.26 1015.70 1016.45 1016.57 1016.61 1016.92 1017.45
1029.40 1029.33 1029.13 1028.77 1028.48 1028.37 1028.11 1027.84 1027.59 1027.23 1026.61 1025.99 1025.28 1024.47 1023.59 1022.62 1021.46 1019.99 1017.71 1017.08 1018.37 1018.03 1018.39 1018.34 1017.58 1016.89 1014.50 1013.48 1012.15 1011.45 1010.60 1010.78 1011.11 1011.70 1012.37 1012.48 1013.33 1013.31 1013.13 1013.07 1013.45 1014.18 1015.00 1015.62 1015.86 1016.23 1017.00
1029.57 1029.51 1029.31 1029.01 1028.70 1028.49 1028.21 1027.85 1027.49 1027.27 1026.65 1025.94 1025.25 1024.50 1023.53 1022.74 1021.90 1021.00 1020.03 1020.78 1022.87 1023.45 1020.93 1018.06 1017.09 1016.22 1014.48 1014.71 1014.22 1011.83 1011.18 1011.31 1011.75 1012.38 1012.90 1013.33 1012.69 1012.77 1012.92 1013.26 1013.34 1013.73 1014.53 1015.21 1015.59 1016.05 1016.96
1029.80 1029.65 1029.57 1029.15 1028.95 1028.75 1028.39 1027.90 1027.68 1027.28 1026.76 1026.14 1025.42 1024.76 1023.72 1022.84 1021.84 1021.61 1021.76 1022.63 1022.80 1022.83 1022.21 1017.92 1016.06 1014.71 1013.65 1013.43 1013.36 1012.49 1012.07 1011.79 1011.80 1012.57 1013.32 1013.14 1012.45 1012.73 1013.07 1013.16 1013.55 1013.62 1013.98 1014.77 1015.36 1016.28 1017.00
1030.00 1029.86 1029.62 1029.47 1029.24 1028.96 1028.62 1028.20 1027.95 1027.52 1027.00 1026.52 1025.78 1025.14 1024.38 1023.14 1022.55 1022.74 1022.65 1022.62 1022.44 1022.42 1021.85 1018.21 1015.49 1013.77 1013.35 1013.17 1012.75 1011.62 1011.13 1012.22 1011.91 1012.23 1013.22 1012.93 1012.43 1012.48 1012.65 1012.67 1013.15 1013.45 1013.44 1014.32 1015.57 1016.77 1017.63
1030.25 1030.11 1029.93 1029.68 1029.39 1029.16 1028.75 1028.46 1028.24 1027.54 1027.28 1026.78 1026.15 1025.51 1024.93 1024.14 1024.52 1023.85 1023.37 1022.49 1022.06 1022.40 1021.58 1017.86 1015.15 1013.88 1014.04 1014.04 1013.24 1011.37 1010.57 1011.16 1011.79 1012.18 1012.99 1012.68 1012.47 1012.02 1011.92 1011.89 1012.68 1013.76 1014.14 1015.03 1016.20 1017.32 1017.92
1030.40 1030.25 1030.10 1029.86 1029.74 1029.33 1028.97 1028.81 1028.33 1027.89 1027.47 1026.98 1026.36 1025.76 1025.28 1024.71 1024.67 1023.68 1022.96 1022.27 1022.22 1022.65 1021.15 1018.17 1016.60 1016.14 1015.09 1013.96 1013.37 1012.10 1011.30 1011.28 1011.28 1012.01 1012.66 1012.96 1012.65 1012.74 1012.09 1012.29 1012.80 1014.12 1015.23 1016.52 1017.55 1018.55 1019.32
1030.65 1030.39 1030.34 1030.22 1029.89 1029.55 1029.27 1029.07 1028.59 1028.12 1027.59 1027.16 1026.45 1025.74 1025.32 1025.22 1024.64 1023.40 1023.09 1022.94 1023.71 1023.13 1021.92 1020.60 1019.43 1018.26 1016.71 1015.56 1014.13 1013.04 1012.04 1011.82 1012.21 1012.72 1013.44 1013.66 1013.81 1013.40 1013.39 1013.65 1014.04 1015.00 1016.79 1018.57 1019.73 1020.17 1019.68
1030.70 1030.59 1030.53 1030.40 1030.05 1029.83 1029.49 1029.22 1028.80 1028.24 1027.74 1027.17 1026.47 1025.71 1025.29 1024.82 1024.31 1024.31 1024.18 1024.45 1025.04 1024.84 1023.53 1022.26 1021.17 1019.39 1018.24 1017.46 1015.95 1014.64 1013.31 1013.02 1012.77 1013.42 1014.63 1014.97 1015.27 1014.73 1014.43 1014.52 1014.92 1015.88 1017.15 1018.83 1020.02 1020.60 1019.83
1030.89 1030.73 1030.65 1030.48 1030.25 1029.98 1029.78 1029.41 1028.99 1028.51 1027.95 1027.40 1026.66 1026.28 1025.60 1024.74 1024.43 1024.68 1025.28 1026.23 1026.81 1025.62 1024.54 1023.26 1021.83 1020.53 1019.72 1018.87 1018.57 1016.58 1015.22 1013.69 1013.08 1013.65 1014.87 1015.89 1015.84 1015.00 1014.99 1014.86 1015.04 1016.14 1017.19 1017.83 1019.67 1020.85 1020.36
1030.98 1030.90 1030.73 1030.60 1030.43 1030.18 1029.96 1029.66 1029.31 1028.77 1028.14 1027.58 1027.75 1027.29 1026.06 1025.06 1024.80 1025.45 1026.43 1027.25 1026.48 1025.35 1024.47 1023.67 1022.94 1022.50 1021.64 1020.28 1019.36 1017.92 1016.47 1014.84 1013.81 1013.52 1014.56 1016.67 1016.96 1016.26 1015.63 1015.71 1015.68 1016.30 1017.75 1018.80 1020.20 1021.77 1021.91
1031.14 1030.92 1030.88 1030.68 1030.51 1030.36 1030.15 1029.83 1029.60 1029.02 1028.31 1027.55 1027.85 1027.64 1025.95 1025.37 1025.60 1026.92 1027.88 1027.45 1026.17 1024.92 1024.49 1023.85 1023.36 1022.92 1022.18 1021.29 1020.01 1019.19 1017.41 1015.84 1015.06 1014.88 1015.84 1016.43 1017.38 1017.49 1016.41 1016.96 1017.40 1017.54 1018.75 1020.08 1021.42 1022.22 1022.56
1031.12 1031.06 1031.02 1030.80 1030.61 1030.49 1030.35 1030.12 1029.86 1029.38 1028.59 1028.17 1028.59 1028.10 1026.29 1026.06 1026.99 1027.65 1028.01 1027.08 1025.97 1024.91 1024.07 1023.56 1023.25 1022.72 1022.34 1021.84 1020.82 1019.60 1018.13 1017.13 1016.38 1016.29 1016.28 1017.10 1017.51 1018.36 1018.32 1017.81 1017.91 1018.12 1019.14 1019.85 1021.74 1023.02 1022.85
1031.12 1031.08 1031.04 1030.98 1030.74 1030.66 1030.60 1030.39 1030.16 1029.82 1029.42 1029.74 1029.83 1028.99 1026.99 1026.85 1028.06 1028.39 1027.93 1027.02 1026.07 1025.21 1024.43 1023.96 1023.71 1023.22 1022.64 1022.27 1021.77 1020.24 1019.07 1017.47 1016.97 1016.86 1017.21 1017.18 1017.75 1018.58 1019.13 1018.56 1018.43 1019.00 1019.02 1020.13 1021.13 1021.88 1022.58
1030.94 1031.13 1031.14 1031.03 1030.94 1030.86 1030.78 1030.57 1030.36 1030.10 1029.70 1029.73 1030.28 1029.94 1028.60 1028.07 1028.17 1028.38 1028.13 1027.43 1026.43 1025.32 1024.79 1024.66 1024.34 1023.95 1023.61 1022.39 1021.46 1020.40 1019.33 1018.10 1017.71 1016.99 1017.28 1017.42 1017.36 1016.65 1016.49 1016.19 1016.78 1017.88 1017.57 1019.02 1019.81 1021.49 1021.89
1030.88 1031.00 1031.09 1031.09 1031.05 1030.98 1030.83 1030.67 1030.56 1030.31 1029.98 1030.19 1030.61 1030.75 1030.30 1030.08 1029.18 1029.03 1028.49 1027.65 1026.91 1026.27 1025.52 1025.09 1024.60 1024.57 1024.48 1023.25 1021.67 1020.47 1019.76 1019.08 1018.20 1016.92 1017.19 1017.39 1016.77 1016.02 1015.50 1015.22 1015.64 1015.76 1016.25 1017.52 1018.66 1019.23 1019.90
1030.63 1030.83 1031.00 1031.11 1031.13 1031.05 1030.88 1030.85 1030.79 1030.52 1030.24 1030.68 1031.11 1031.22 1030.85 1030.60 1029.86 1029.32 1028.60 1028.00 1027.51 1026.90 1026.38 1025.43 1025.14 1024.54 1024.22 1023.90 1023.20 1021.65 1020.92 1020.29 1019.45 1018.13 1017.33 1016.92 1016.71 1016.07 1015.93 1015.08 1015.05 1015.12 1015.08 1015.62 1016.77 1017.69 1017.85
1030.46 1030.69 1030.88 1031.05 1031.09 1031.10 1031.07 1031.03 1030.97 1030.83 1030.83 1031.19 1031.05 1031.22 1031.32 1031.00 1030.28 1029.76 1028.98 1028.50 1027.97 1027.40 1026.37 1025.75 1025.30 1024.74 1023.89 1023.43 1023.06 1021.89 1021.11 1020.29 1019.63 1018.96 1017.98 1017.28 1017.09 1016.95 1016.26 1015.36 1014.77 1014.65 1013.76 1014.19 1014.91 1015.13 1015.69
1030.26 1030.49 1030.68 1030.87 1031.04 1031.06 1031.10 1031.09 1031.12 1031.15 1031.30 1031.74 1031.87 1031.92 1031.84 1031.26 1030.61 1029.99 1029.34 1028.73 1028.25 1027.75 1027.32 1025.97 1025.35 1024.81 1023.92 1023.12 1021.97 1020.28 1019.45 1018.46 1018.36 1017.65 1017.90 1017.71 1017.50 1017.04 1016.34 1015.63 1014.70 1012.62 1011.85 1012.01 1012.55 1012.94 1013.67
1030.02 1030.28 1030.49 1030.69 1030.88 1031.01 1031.11 1031.13 1031.17 1031.26 1031.31 1031.79 1032.16 1032.30 1032.15 1031.35 1030.66 1029.98 1029.29 1028.87 1028.37 1027.70 1027.21 1026.33 1025.40 1024.83 1024.07 1023.40 1021.60 1019.75 1018.39 1017.53 1016.70 1016.08 1016.48 1016.98 1017.54 1017.06 1016.62 1016.15 1014.03 1011.87 1010.78 1010.62 1011.27 1011.57 1011.81
1029.72 1029.98 1030.23 1030.51 1030.71 1030.85 1031.04 1031.15 1031.16 1031.27 1031.28 1031.82 1032.09 1032.02 1032.22 1031.76 1030.42 1030.06 1029.75 1029.23 1028.69 1027.97 1027.30 1026.41 1025.64 1024.77 1024.23 1022.85 1021.12 1019.74 1018.46 1017.23 1015.94 1014.78 1014.35 1015.93 1016.77 1016.88 1017.22 1016.39 1014.50 1011.72 1010.29 1009.90 1010.21 1010.79 1010.73
1029.37 1029.69 1029.96 1030.24 1030.47 1030.64 1030.85 1031.01 1031.12 1031.19 1031.24 1031.68 1031.92 1031.74 1031.87 1031.38 1030.21 1029.95 1029.61 1029.18 1028.57 1028.44 1028.02 1027.15 1026.49 1025.59 1024.95 1023.50 1021.76 1020.03 1018.75 1017.90 1015.78 1014.96 1015.29 1015.67 1016.27 1017.03 1017.00 1016.06 1013.72 1011.22 1010.17 1009.95 1010.58 1011.30 1010.54
1029.06 1029.32 1029.62 1030.03 1030.21 1030.36 1030.55 1030.72 1030.89 1030.97 1031.09 1031.49 1031.57 1031.39 1031.63 1031.20 1029.93 1029.32 1029.01 1028.84 1028.78 1028.62 1028.23 1027.33 1027.00 1026.51 1025.74 1025.00 1023.31 1021.41 1019.26 1017.38 1015.65 1014.50 1014.45 1015.19 1015.74 1016.67 1016.56 1015.42 1013.49 1010.91 1010.25 1010.25 1010.35 1010.29 1010.28
1028.67 1028.90 1029.16 1029.57 1029.89 1030.09 1030.33 1030.50 1030.56 1030.68 1030.82 1031.01 1031.36 1031.01 1030.97 1031.12 1029.52 1028.59 1028.36 1028.23 1028.01 1027.87 1027.89 1027.53 1027.10 1027.36 1026.81 1026.57 1025.71 1024.07 1021.91 1018.65 1016.60 1015.17 1014.13 1014.53 1014.28 1014.67 1014.71 1013.35 1011.60 1010.65 1010.16 1009.90 1009.88 1010.07 1010.13
Thickness
5606 5610 5612 5615 5617 5619 5621 5623 5627 5630 5634 5638 5644 5649 5654 5660 5666 5671 5677 5683 5688 5692 5696 5699 5700 5707 5715 5712 5721 5754 5753 5755 5756 5754 5745 5740 5732 5724 5707 5705 5705 5689 5690 5687 5684 5678 5667
5600 5604 5606 5607 5611 5613 5615 5619 5621 5625 5630 5633 5638 5643 5650 5656 5662 5668 5675 5680 5686 5690 5694 5696 5696 5700 5703 5695 5740 5746 5746 5747 5745 5742 5739 5737 5729 5725 5707 5701 5693 5686 5677 5674 5671 5666 5659
5594 5597 5599 5602 5603 5606 5609 5612 5615 5618 5622 5627 5633 5639 5646 5654 5662 5670 5677 5683 5685 5689 5691 5691 5688 5690 5691 5701 5736 5739 5737 5737 5741 5738 5729 5734 5734 5721 5706 5690 5689 5678 5663 5664 5667 5660 5647
5587 5591 5592 5595 5598 5600 5602 5605 5608 5611 5615 5619 5624 5629 5636 5644 5652 5661 5671 5683 5689 5689 5688 5686 5683 5684 5687 5724 5728 5727 5733 5734 5737 5736 5731 5731 5729 5714 5702 5690 5680 5663 5655 5639 5654 5655 5647
5580 5584 5585 5587 5591 5593 5594 5596 5599 5602 5607 5610 5615 5621 5627 5636 5646 5656 5667 5680 5687 5688 5687 5683 5678 5679 5685 5722 5718 5729 5726 5719 5722 5722 5723 5724 5717 5694 5685 5662 5646 5648 5632 5637 5645 5649 5644
5572 5576 5577 5581 5583 5586 5587 5589 5592 5595 5600 5604 5609 5615 5622 5632 5641 5652 5669 5679 5682 5683 5680 5678 5677 5668 5693 5700 5709 5712 5719 5712 5705 5703 5696 5696 5680 5664 5656 5647 5630 5634 5634 5636 5635 5641 5637
5565 5567 5570 5574 5577 5579 5580 5582 5585 5588 5593 5598 5603 5609 5616 5625 5633 5644 5663 5667 5655 5656 5649 5642 5651 5653 5672 5685 5697 5697 5705 5699 5694 5683 5660 5668 5650 5643 5662 5663 5664 5655 5646 5639 5639 5642 5633
5559 5560 5563 5566 5570 5571 5573 5576 5579 5580 5585 5591 5596 5601 5609 5616 5621 5627 5635 5626 5608 5602 5623 5642 5649 5654 5668 5660 5657 5678 5692 5675 5668 5651 5653 5643 5643 5656 5659 5654 5652 5652 5639 5636 5641 5639 5632
5551 5553 5554 5559 5561 5563 5565 5569 5570 5573 5577 5582 5587 5591 5600 5607 5613 5615 5612 5604 5603 5602 5604 5634 5650 5656 5662 5661 5653 5658 5665 5662 5654 5640 5631 5628 5652 5651 5642 5643 5639 5641 5634 5631 5631 5628 5629
5543 5545 5548 5550 5552 5554 5557 5560 5561 5564 5568 5571 5577 5581 5586 5595 5599 5596 5597 5596 5597 5595 5582 5616 5636 5647 5654 5655 5642 5659 5663 5646 5642 5631 5621 5621 5643 5636 5633 5635 5638 5629 5647 5637 5628 5615 5599
5534 5536 5538 5541 5543 5545 5548 5550 5551 5556 5557 5561 5565 5570 5574 5579 5575 5579 5583 5588 5590 5585 5543 5614 5624 5642 5634 5629 5631 5643 5656 5640 5623 5621 5612 5610 5621 5627 5627 5638 5640 5627 5634 5629 5622 5610 5602
5525 5527 5529 5532 5533 5536 5540 5540 5543 5546 5548 5551 5556 5560 5564 5568 5568 5574 5577 5581 5579 5538 5527 5598 5608 5600 5606 5617 5620 5626 5626 5630 5625 5609 5602 5605 5616 5618 5626 5631 5635 5628 5617 5607 5602 5593 5557
5515 5518 5520 5522 5524 5527 5530 5530 5533 5537 5540 5542 5548 5553 5556 5556 5556 5566 5568 5565 5525 5502 5575 5573 5572 5577 5587 5593 5602 5604 5601 5594 5583 5576 5574 5590 5592 5606 5613 5605 5614 5610 5591 5543 5555 5541 5550
5507 5509 5511 5513 5516 5517 5520 5522 5525 5529 5532 5535 5540 5545 5547 5549 5552 5550 5548 5527 5493 5539 5548 5552 5553 5562 5564 5567 5569 5577 5582 5574 5583 5579 5562 5560 5553 5590 5602 5598 5597 5598 5592 5548 5545 5565 5576
5498 5500 5502 5504 5507 5509 5511 5513 5516 5520 5522 5525 5530 5534 5536 5541 5540 5537 5522 5481 5481 5525 5531 5534 5541 5543 5543 5545 5538 5551 5555 5573 5581 5583 5563 5544 5562 5588 5595 5601 5605 5594 5587 5601 5578 5569 5558
5490 5492 5494 5496 5498 5500 5501 5504 5506 5509 5512 5515 5512 5513 5520 5527 5526 5517 5493 5491 5509 5520 5521 5520 5516 5515 5510 5520 5525 5533 5546 5565 5576 5587 5578 5546 5548 5574 5583 5591 5597 5594 5591 5578 5570 5544 5540
5481 5484 5485 5488 5489 5491 5492 5494 5495 5499 5503 5506 5503 5501 5512 5514 5513 5493 5466 5478 5506 5515 5512 5510 5506 5502 5506 5506 5519 5524 5541 5561 5571 5573 5561 5558 5548 5555 5576 5567 5562 5567 5560 5559 5545 5533 5557
5473 5475 5477 5479 5481 5482 5482 5484 5484 5487 5492 5495 5486 5479 5502 5502 5481 5472 5467 5491 5503 5503 5505 5504 5504 5502 5496 5498 5505 5519 5533 5544 5553 5557 5557 5554 5545 5538 5550 5566 5571 5575 5567 5560 5541 5529 5535
5464 5466 5468 5470 5472 5472 5472 5473 5473 5475 5476 5473 5464 5468 5489 5486 5447 5446 5475 5483 5488 5491 5492 5492 5489 5491 5490 5493 5487 5508 5520 5539 5546 5550 5547 5555 5537 5531 5531 5550 5558 5553 5563 5551 5530 5533 5540
5457 5456 5458 5460 5461 5462 5462 5462 5463 5464 5465 5463 5455 5441 5465 5470 5471 5472 5470 5464 5471 5481 5480 5475 5476 5470 5463 5485 5500 5509 5519 5535 5536 5550 5547 5544 5547 5551 5556 5567 5563 5554 5571 5559 5563 5530 5538
5448 5448 5448 5449 5449 5452 5452 5452 5452 5453 5454 5451 5444 5434 5445 5428 5451 5447 5455 5461 5461 5459 5465 5466 5463 5464 5457 5468 5493 5509 5517 5522 5533 5550 5546 5542 5549 5567 5576 5584 5575 5579 5583 5568 5561 5563 5565
5440 5439 5439 5439 5440 5441 5442 5440 5440 5441 5441 5436 5424 5429 5431 5428 5437 5439 5441 5445 5446 5447 5451 5452 5451 5458 5463 5462 5468 5485 5503 5505 5509 5532 5542 5545 5548 5562 5561 5579 5582 5585 5588 5580 5579 5570 5573
5431 5430 5430 5429 5430 5430 5429 5429 5428 5427 5426 5423 5424 5422 5417 5418 5421 5424 5425 5433 5434 5436 5441 5447 5445 5445 5456 5466 5468 5482 5490 5499 5507 5514 5528 5539 5543 5543 5553 5569 5579 5565 5573 5583 5583 5585 5586
5421 5421 5421 5421 5419 5419 5418 5417 5416 5413 5411 5408 5407 5404 5406 5407 5409 5413 5414 5422 5421 5421 5419 5434 5437 5441 5455 5460 5470 5491 5500 5515 5514 5524 5528 5530 5539 5543 5549 5564 5539 5587 5604 5603 5599 5599 5598
5413 5412 5412 5411 5410 5408 5406 5405 5404 5402 5400 5396 5393 5390 5389 5398 5398 5400 5408 5407 5407 5412 5411 5419 5431 5438 5443 5450 5483 5505 5514 5528 5535 5538 5537 5537 5536 5539 5543 5546 5572 5598 5611 5610 5602 5602 5610
5404 5404 5403 5402 5400 5398 5396 5394 5392 5391 5389 5386 5382 5381 5376 5384 5385 5387 5385 5388 5388 5393 5404 5412 5420 5428 5440 5463 5490 5505 5519 5522 5541 5553 5560 5550 5545 5542 5526 5550 5560 5587 5614 5621 5616 5587 5617
5397 5396 5395 5393 5391 5389 5387 5384 5382 5380 5379 5376 5371 5371 5369 5372 5380 5374 5376 5377 5386 5384 5388 5399 5406 5417 5429 5453 5483 5497 5508 5512 5534 5541 5545 5542 5536 5528 5504 5521 5564 5597 5612 5617 5591 5588 5616
5389 5388 5387 5383 5382 5381 5379 5377 5374 5371 5368 5366 5361 5360 5357 5358 5368 5368 5370 5370 5365 5370 5377 5392 5397 5402 5418 5430 5458 5474 5502 5517 5538 5552 5549 5542 5534 5519 5523 5539 5553 5602 5607 5602 5598 5611 5618
5381 5381 5380 5377 5374 5373 5371 5368 5366 5363 5360 5359 5352 5351 5351 5349 5360 5363 5362 5362 5363 5365 5370 5380 5393 5393 5406 5414 5422 5437 5463 5506 5527 5529 5558 5545 5552 5546 5558 5560 5588 5601 5605 5612 5609 5612 5618